Regional Weather Roundup
Issued by NWS

Home | Current Version | Previous Version | Graphics & Text | Print | Product List | Glossary On
Versions: 1 2 3 4 5 6 7 8 9 10 11 12 13 14 15 16 17 18 19 20 21 22 23 24 25 26 27 28 29 30 31 32 33 34 35 36 37 38 39 40 41 42 43 44 45 46 47 48 49 50
000
ASUS43 KLOT 040400
RWRIL

ILLINOIS REGIONAL WEATHER ROUNDUP
NATIONAL WEATHER SERVICE CHICAGO/ROMEOVILLE IL
1100 PM CDT MON AUG 03 2015

NOTE: "FAIR" INDICATES FEW OR NO CLOUDS BELOW 12,000 FEET WITH NO
SIGNIFICANT WEATHER AND/OR OBSTRUCTIONS TO VISIBILITY.

* THESE STATIONS ARE NOT UNDER NWS QUALITY CONTROL. THEY ALSO MAY NOT
  REPORT WEATHER SUCH AS PRECIPITATION OR FOG.

ILZ001-002-007-009-015-016-024-040500-
NORTHWEST ILLINOIS

CITY           SKY/WX    TMP DP  RH WIND       PRES   REMARKS
MOLINE         CLEAR     64  57  78 SW3       29.95R
STERLING*      CLEAR     64  55  72 SW3       29.91S
$$

ILZ003-004-008-010-011-017-018-040500-
NORTH CENTRAL ILLINOIS

CITY           SKY/WX    TMP DP  RH WIND       PRES   REMARKS
ROCKFORD       CLEAR     64  56  75 W5        29.94R
$$

ILZ005-006-012>014-019>023-040500-
NORTHEAST ILLINOIS

CITY           SKY/WX    TMP DP  RH WIND       PRES   REMARKS
CHICAGO-OHARE  CLEAR     69  55  60 W6        29.90S
CHICAGO-MIDWAY CLEAR     73  53  49 W7        29.91R
AURORA         CLEAR     60  56  86 W5        29.93R
WAUKEGAN       PTCLDY    64  57  78 W3        29.89S
DUPAGE AIRPORT CLEAR     67  56  67 W6        29.91S
WHEELING       CLEAR     71  53  52 W6        29.91S
NORTHERLY ISL    N/A     75  50  41 W7          N/A
$$

LMZ740>746-040500-
SOUTHERN LAKE MICHIGAN

STATION/POSITION SKY/WX   TEMP    WIND        PRES    VSBY  WAVE
                          AIR SEA DIR/SP/G                  HT/PER
                          (F)     (DEG/KT/KT) (MB)    (MI)  (FT/S)
HARRISON CRIB              76     270/  9/ 10   N/A
BURNHAM HARBOR             76     270/  5/  8   N/A
CALUMET HARBOR             75     240/  2/  4   N/A
BURNS HARBOR               71     180/  3/  5 1013.2R
MICHIGAN CITY              71     170/  6/  7   N/A
MICHIGAN CITY 6N           73 74  220/  6/  8   N/A           1/ 4
ST. JOSEPH                 73 74  250/  8/ 10   N/A           1/ 4
$$

ILZ025>027-034>036-040-047-049-050-058-095>099-040500-
WEST-CENTRAL ILLINOIS

CITY           SKY/WX    TMP DP  RH WIND       PRES   REMARKS
QUINCY         PTCLDY    71  65  81 N6        29.96S
$$

ILZ028>032-037-038-041>044-048-051>054-059>061-040500-
CENTRAL ILLINOIS

CITY           SKY/WX    TMP DP  RH WIND       PRES   REMARKS
DECATUR        CLEAR     72  60  66 N7        29.95S
PEORIA         CLEAR     70  59  68 NW3       29.96R
SPRINGFIELD    CLEAR     68  65  90 NW3       29.95S
TAYLORVILLE    NOT AVBL
$$

ILZ033-039-045-046-055>057-062-063-040500-
EAST-CENTRAL ILLINOIS

CITY           SKY/WX    TMP DP  RH WIND       PRES   REMARKS
CHAMPAIGN      CLEAR     65  60  84 N5        29.95S
MATTOON        CLOUDY    71  64  78 NW6       29.94R
$$

ILZ079-100>102-040500-
SOUTHWEST ILLINOIS

CITY           SKY/WX    TMP DP  RH WIND       PRES   REMARKS
CAHOKIA*       CLEAR     78  72  81 CALM      29.93R HX  80
$$

ILZ064>066-069>071-074>076-080>082-084>086-088>090-092>094-040500-
SOUTH-CENTRAL ILLINOIS

CITY           SKY/WX    TMP DP  RH WIND       PRES   REMARKS
CARBONDALE     CLEAR     77  74  90 CALM      29.93R
MT. VERNON     CLEAR     72  66  83 CALM      29.95R
$$

ILZ067-068-072-073-078-083-087-091-040500-
SOUTHEAST ILLINOIS

CITY           SKY/WX    TMP DP  RH WIND       PRES   REMARKS
LAWRENCEVILLE  CLEAR     74  67  78 NW7       29.93R
$$

ABBREVIATIONS USED IN REMARKS
   TC - TEMPERATURE IN CELSIUS
  WCI - WIND CHILL INDEX
   HX - HEAT INDEX
  VSB - VISIBILITY
$$



USA.gov is the U.S. government's official web portal to all federal, state and local government web resources and services.